TimeCST,TemperatureF,Dew PointF,Humidity,Sea Level PressureIn,VisibilityMPH,Wind Direction,Wind SpeedMPH,Gust SpeedMPH,PrecipitationIn,Events,Conditions,WindDirDegrees,DateUTC
12:00 AM,71.6,69.8,94,29.83,3.7,East,4.5,-,N/A,,Mostly Cloudy,90,2013-06-14 16:00:00
12:30 AM,71.6,69.8,94,29.83,1.9,East,4.5,-,N/A,,Mostly Cloudy,90,2013-06-14 16:30:00
1:00 AM,71.6,69.8,94,29.83,1.9,Variable,2.2,-,N/A,,Mostly Cloudy,0,2013-06-14 17:00:00
1:30 AM,71.6,69.8,94,29.83,1.9,East,4.5,-,N/A,,Mostly Cloudy,80,2013-06-14 17:30:00
2:00 AM,71.6,69.8,94,29.83,1.6,East,4.5,-,N/A,,Mostly Cloudy,80,2013-06-14 18:00:00
2:30 AM,71.6,69.8,94,29.80,2.2,ENE,4.5,-,N/A,,Mostly Cloudy,70,2013-06-14 18:30:00
3:00 AM,71.6,69.8,94,29.80,3.7,East,4.5,-,N/A,,Mostly Cloudy,80,2013-06-14 19:00:00
3:30 AM,71.6,69.8,94,29.80,4.3,ENE,4.5,-,N/A,,Mostly Cloudy,70,2013-06-14 19:30:00
4:00 AM,71.6,69.8,94,29.80,4.3,East,6.7,-,N/A,,Mostly Cloudy,90,2013-06-14 20:00:00
4:30 AM,71.6,69.8,94,29.80,5.0,East,4.5,-,N/A,,Mostly Cloudy,90,2013-06-14 20:30:00
5:00 AM,71.6,69.8,94,29.80,4.3,ESE,4.5,-,N/A,,Mostly Cloudy,110,2013-06-14 21:00:00
5:30 AM,71.6,69.8,94,29.83,4.3,East,4.5,-,N/A,,Mostly Cloudy,90,2013-06-14 21:30:00
6:00 AM,71.6,69.8,94,29.83,3.7,East,6.7,-,N/A,,Mostly Cloudy,100,2013-06-14 22:00:00
6:30 AM,73.4,69.8,88,29.83,3.7,East,6.7,-,N/A,,Mostly Cloudy,90,2013-06-14 22:30:00
7:00 AM,73.4,71.6,94,29.83,3.7,East,6.7,-,N/A,,Mostly Cloudy,100,2013-06-14 23:00:00
7:30 AM,73.4,71.6,94,29.83,3.7,East,6.7,-,N/A,,Mostly Cloudy,90,2013-06-14 23:30:00
8:00 AM,75.2,71.6,89,29.83,4.3,East,6.7,-,N/A,,Mostly Cloudy,90,2013-06-15 00:00:00
8:30 AM,75.2,71.6,89,29.83,6.2,East,6.7,-,N/A,,Mostly Cloudy,90,2013-06-15 00:30:00
9:00 AM,75.2,71.6,89,29.83,2.2,East,6.7,-,N/A,Rain,Light Rain,90,2013-06-15 01:00:00
9:30 AM,75.2,71.6,89,29.83,4.3,East,6.7,-,N/A,,Mostly Cloudy,80,2013-06-15 01:30:00
10:00 AM,77.0,73.4,89,29.83,4.3,East,4.5,-,N/A,,Mostly Cloudy,100,2013-06-15 02:00:00
10:30 AM,77.0,73.4,89,29.83,3.7,East,6.7,-,N/A,,Mostly Cloudy,90,2013-06-15 02:30:00
11:00 AM,78.8,73.4,83,29.83,4.3,East,6.7,-,N/A,,Mostly Cloudy,100,2013-06-15 03:00:00
11:30 AM,78.8,73.4,83,29.83,6.2,East,6.7,-,N/A,,Mostly Cloudy,100,2013-06-15 03:30:00
12:00 PM,78.8,73.4,83,29.83,6.2,ESE,6.7,-,N/A,,Mostly Cloudy,110,2013-06-15 04:00:00
12:30 PM,80.6,73.4,79,29.83,6.2,ESE,4.5,-,N/A,,Mostly Cloudy,120,2013-06-15 04:30:00
1:00 PM,78.8,73.4,83,29.80,6.2,SSE,4.5,-,N/A,,Mostly Cloudy,150,2013-06-15 05:00:00
1:30 PM,80.6,75.2,84,29.80,6.2,SSE,4.5,-,N/A,,Mostly Cloudy,160,2013-06-15 05:30:00
2:00 PM,80.6,73.4,79,29.80,6.2,East,6.7,-,N/A,,Mostly Cloudy,100,2013-06-15 06:00:00
2:30 PM,80.6,73.4,79,29.77,6.2,East,8.9,-,N/A,,Mostly Cloudy,100,2013-06-15 06:30:00
3:00 PM,80.6,73.4,79,29.80,6.2,ESE,8.9,-,N/A,,Mostly Cloudy,110,2013-06-15 07:00:00
3:30 PM,80.6,73.4,79,29.77,6.2,East,11.2,-,N/A,,Mostly Cloudy,90,2013-06-15 07:30:00
4:00 PM,80.6,71.6,74,29.77,6.2,East,8.9,-,N/A,,Mostly Cloudy,100,2013-06-15 08:00:00
4:30 PM,80.6,73.4,79,29.77,6.2,East,11.2,-,N/A,,Mostly Cloudy,100,2013-06-15 08:30:00
5:00 PM,80.6,73.4,79,29.77,6.2,ESE,8.9,-,N/A,,Partly Cloudy,110,2013-06-15 09:00:00
5:30 PM,80.6,73.4,79,29.77,6.2,East,8.9,-,N/A,,Mostly Cloudy,80,2013-06-15 09:30:00
6:00 PM,80.6,71.6,74,29.77,6.2,East,11.2,-,N/A,,Scattered Clouds,80,2013-06-15 10:00:00
6:30 PM,78.8,71.6,78,29.77,6.2,East,8.9,-,N/A,,Scattered Clouds,80,2013-06-15 10:30:00
7:00 PM,77.0,71.6,83,29.80,6.2,ESE,11.2,-,N/A,,Mostly Cloudy,120,2013-06-15 11:00:00
7:30 PM,77.0,71.6,83,29.80,6.2,East,8.9,-,N/A,,Mostly Cloudy,100,2013-06-15 11:30:00
8:00 PM,75.2,71.6,89,29.80,6.2,ESE,8.9,-,N/A,,Mostly Cloudy,110,2013-06-15 12:00:00
8:30 PM,75.2,71.6,89,29.80,6.2,ESE,8.9,-,N/A,,Mostly Cloudy,120,2013-06-15 12:30:00
9:00 PM,75.2,71.6,89,29.80,6.2,SE,8.9,-,N/A,,Mostly Cloudy,130,2013-06-15 13:00:00
9:30 PM,75.2,73.4,94,29.80,6.2,ESE,8.9,-,N/A,,Mostly Cloudy,120,2013-06-15 13:30:00
10:00 PM,75.2,73.4,94,29.80,6.2,SE,6.7,-,N/A,,Mostly Cloudy,130,2013-06-15 14:00:00
10:30 PM,75.2,71.6,89,29.80,6.2,SE,6.7,-,N/A,,Mostly Cloudy,130,2013-06-15 14:30:00
11:00 PM,75.2,71.6,89,29.80,3.7,SE,8.9,-,N/A,,Mostly Cloudy,130,2013-06-15 15:00:00
11:30 PM,75.2,71.6,89,29.77,2.5,SE,6.7,-,N/A,,Overcast,130,2013-06-15 15:30:00